weather.gov     
National Weather Service

Regional Weather Roundup
NWS Homepage
This page is being discontinued on March 12, 2014.
The same data is available at this site. Please update your bookmarks.
Thank you, and we apologize for the inconvenience.
Please send an email to SR-SRH.Webmaster@noaa.gov with any concerns.


Current Version
Previous Version:    01  02  03  04  05  06  07  08  09  10  11  12  13  14  15  16  17  18  19  20  21  22  23  24  25  26  27  28  29  30  
   31  32  33  34  35  36  37  38  39  40  41  42  43  44  45  46  47  48  49  50  51  52  53  54  55  56  57  58  59  60  
[Printable]
395
ASUS43 KLOT 272310
RWRIL

ILLINOIS REGIONAL WEATHER ROUNDUP
NATIONAL WEATHER SERVICE CHICAGO/ROMEOVILLE IL
500 PM CST THU NOV 27 2014

NOTE: "FAIR" INDICATES FEW OR NO CLOUDS BELOW 12,000 FEET WITH NO
SIGNIFICANT WEATHER AND/OR OBSTRUCTIONS TO VISIBILITY.

* THESE STATIONS ARE NOT UNDER NWS QUALITY CONTROL. THEY ALSO MAY NOT
  REPORT WEATHER SUCH AS PRECIPITATION OR FOG.

ILZ001-002-007-009-015-016-024-280000-
NORTHWEST ILLINOIS

CITY           SKY/WX    TMP DP  RH WIND       PRES   REMARKS
MOLINE         CLEAR     17   2  51 NW10      30.45S WCI   5
STERLING*      PTCLDY    18   9  68 W8        30.43R WCI   7
SAVANNA*       CLEAR     19   4  52 W8        30.44R WCI   8
$$

ILZ003-004-008-010-011-017-018-280000-
NORTH CENTRAL ILLINOIS

CITY           SKY/WX    TMP DP  RH WIND       PRES   REMARKS
ROCKFORD       PTCLDY    19   9  65 NW7       30.43R WCI  10
FREEPORT*      CLEAR     15   5  64 NW8       30.42R WCI   3
ROCHELLE*      MOCLDY    18  10  71 NW8       30.41R WCI   8
DE KALB*       MOCLDY    18  10  70 NW9       30.40R WCI   6
PERU*          CLEAR     19  15  81 W9        30.44R WCI   9
$$

ILZ005-006-012>014-019>023-280000-
NORTHEAST ILLINOIS

CITY           SKY/WX    TMP DP  RH WIND       PRES   REMARKS
CHICAGO-OHARE  MOCLDY    22  11  62 NW10      30.38R WCI  11
CHICAGO-MIDWAY FLURRIES  25  15  66 NW8       30.39R WCI  16
AURORA         CLOUDY    22  12  65 NW10      30.40R WCI  11
LANSING*       CLOUDY    25  14  63 NW9       30.39R WCI  16
JOLIET*        CLOUDY    22  15  74 W7        30.41R WCI  14
WAUKEGAN       LGT SNOW  19  13  77 NW7       30.39R WCI  10
DUPAGE AIRPORT CLOUDY    21  13  71 N10       30.39R WCI  10
KANKAKEE*      FLURRIES N/A N/A N/A W12       30.40R
WHEELING       PTCLDY    20  11  68 NW10      30.41R WCI   9
MORRIS*        CLOUDY    24  16  73 NW5       30.41R WCI  18
ROMEOVILLE*    MOCLDY    22  14  70 NW9       30.39R WCI  12
NORTHERLY ISL    N/A     24  14  65 NW7         N/A  WCI  16
$$

LMZ740>746-280000-
SOUTHERN LAKE MICHIGAN

STATION/POSITION SKY/WX   TEMP    WIND        PRES    VSBY  WAVE
                          AIR SEA DIR/SP/G                  HT/PER
                          (F)     (DEG/KT/KT) (MB)    (MI)  (FT/S)
SOUTHERN BUOY              25 42  320/ 16/ 21 1028.9R         6/ 8
WAUKEGAN HARBOR            20     330/  7/ 11   N/A
HARRISON CRIB              23     310/ 13/ 16   N/A
BURNHAM HARBOR             24     310/  6/ 13   N/A
CALUMET HARBOR             24     290/  7/ 10 1027.6R
MICHIGAN CITY              26     290/ 17/ 21   N/A
$$

ILZ025>027-034>036-040-047-049-050-058-095>099-280000-
WEST-CENTRAL ILLINOIS

CITY           SKY/WX    TMP DP  RH WIND       PRES   REMARKS
QUINCY         CLEAR     19  12  74 NW6       30.46F WCI  11
GALESBURG*     CLEAR     11   6  81 W7        30.45S WCI   0
MACOMB*        CLEAR     14   5  67 NW9       30.50R WCI   2
JACKSONVILLE*  CLEAR     21  13  72 N8        30.47F WCI  12
PITTSFIELD*    CLEAR     23  16  76 NW5       30.48S WCI  16
$$

ILZ028>032-037-038-041>044-048-051>054-059>061-280000-
CENTRAL ILLINOIS

CITY           SKY/WX    TMP DP  RH WIND       PRES   REMARKS
PONTIAC        FLURRIES  24  18  80 W10       30.43R WCI  13
BLOOMINGTON    CLOUDY    22  15  74 W10       30.42R WCI  11
DECATUR        CLOUDY    22  15  75 W12       30.45R WCI  10
PEORIA         CLEAR     20   9  62 W7        30.46R WCI  11
LACON*         CLEAR     19   8  62 W5        30.44S WCI  12
LINCOLN*       CLEAR     21  13  71 W7        30.48R WCI  13
SPRINGFIELD    CLEAR     21  12  68 NW8       30.47R WCI  11
TAYLORVILLE    PTCLDY    21  14  73 NW8       30.47R WCI  12
$$

ILZ033-039-045-046-055>057-062-063-280000-
EAST-CENTRAL ILLINOIS

CITY           SKY/WX    TMP DP  RH WIND       PRES   REMARKS
CHAMPAIGN      CLOUDY    23  19  85 W12       30.42R WCI  12
DANVILLE*      FLURRIES  26  21  82 NW12G17   30.37R WCI  15
RANTOUL*       FLURRIES  26  20  77 NW9       30.41S WCI  17
MATTOON        MOCLDY    22  16  78 NW14      30.44R WCI   9
PARIS*         LGT SNOW  27  23  87 W14       30.42R WCI  15
$$

ILZ079-100>102-280000-
SOUTHWEST ILLINOIS

CITY           SKY/WX    TMP DP  RH WIND       PRES   REMARKS
ALTON          CLEAR     28  18  64 NW6       30.47R WCI  22
BELLEVILLE     CLEAR     30  20  68 NW6       30.46R WCI  24
CAHOKIA*       CLEAR     32  20  61 NW12      30.46S WCI  23
SPARTA*        CLEAR     29  22  76 CALM      30.48R
$$

ILZ064>066-069>071-074>076-080>082-084>086-088>090-092>094-280000-
SOUTH-CENTRAL ILLINOIS

CITY           SKY/WX    TMP DP  RH WIND       PRES   REMARKS
CARBONDALE     CLEAR     31  24  75 N3        30.47S
CAIRO*         CLEAR     35  26  69 CALM      30.47R
EFFINGHAM*     CLOUDY    26  17  67 NW10      30.46R WCI  16
MARION         PTCLDY    32  25  74 NW6       30.47S WCI  26
MT. VERNON     PTCLDY    28  19  69 CALM      30.46S
CENTRALIA*     CLEAR     27  19  74 NW6       30.46R WCI  20
SALEM*           N/A     28  19  71 NW5       30.47R WCI  22
METROPOLIS*    PTCLDY    33  26  75 CALM        N/A
$$

ILZ067-068-072-073-078-083-087-091-280000-
SOUTHEAST ILLINOIS

CITY           SKY/WX    TMP DP  RH WIND       PRES   REMARKS
LAWRENCEVILLE  CLOUDY    29  21  72 W12       30.45S WCI  19
FLORA*         MOCLDY    27  20  75 NW7       30.47R WCI  19
FAIRFIELD*     PTCLDY    29  23  79 CALM      30.46S
HARRISBURG*    PTCLDY    30  24  78 NW5       30.48S WCI  25
ROBINSON*      CLOUDY    29  21  71 W12       30.46R WCI  20
CARMI*         PTCLDY    30  26  86 W5        30.46S WCI  25
$$

ABBREVIATIONS USED IN REMARKS
   TC - TEMPERATURE IN CELSIUS
  WCI - WIND CHILL INDEX
   HX - HEAT INDEX
  VSB - VISIBILITY
$$





U.S. Dept. of Commerce
NOAA National Weather Service
1325 East West Highway
Silver Spring, MD 20910
E-mail: w-nws.webmaster@noaa.gov
Page last modified: May 16, 2007
NATIONAL WEATHER SERVICE: for Safety, for Work, for Fun - FOR LIFE